Starlink 11393

operational
NORAD ID: 62016 Int'l Des: 2024-213 Owner: SPXS Country: US Constellation: starlink
LEOCIRCULAR

Starlink 11393について

説明を読み込み中...

リアルタイム位置

3D地球を読み込み中...

次回通過

高度履歴

Altitude vs Time

uPlot chart will show altitude changes over time

軌道要素

1 62016U 24213J 25353.55928619 .00046494 00000-0 38589-3 0 9993
2 62016 53.1574 75.9933 0001176 133.8758 226.2357 15.69746387 62335
Epoch: Dec 19, 2025 • Age: 24 hours

現在のステータス

高度 378.1 km
速度 7.68 km/s
衛星直下点 -52.41°S, 63.32°E
打ち上げ日 Nov 18, 2024
運用期間 1 years
タイプ internet

技術仕様

分類 Payload
質量 960.00 kg
乾燥質量 910.00 kg
総質量 960.00 kg
長さ 0.30 m
直径 4.10 m
スパン 29.00 m
形状 Box + pan
製造者 SPXS
バスタイプ Starlink V2MD
フェーズステータス In Orbit
所有者/国 SPXS/US

大規模コンステレーション

Loading constellations...